Погода в Пестяках

Россия / Ивановская область     56°42′30″N   42°40′12″E
темп.,
°C
ветер,
м/с
пор.,
м/с
влажн.,
%
обл.,
%
осадки,
мм/ч
давл.,
гПа
погр.,
м
4 декабря, сб
сб400:00+1ю51498100 4.1 999796
03:00+2юз51198100 6.8 997825
06:000зюз41192100 1.2 998911
09:00−2зюз5118879 1.3 1000829
12:00−2зюз61178100 0.1 10021061
15:00−3зюз6118199 0.2 10031195
18:00−4зюз51083100 0.1 1006834
21:00−5зюз51088100 0.1 1008739
5 декабря, вс
вс500:00−5з4989100 0.1 1010697
03:00−6зсз3892100 0.2 1012603
06:00−9зсз378667 0.1 1014386
09:00−10сз24835 0.1 1017251
12:00−9сз1276100 0.0 1018346
15:00−9с1276100 0.0 1019311
18:00−9св238585 0.1 1020233
21:00−9св2390100 0.3 1021242
6 декабря, пн
пн600:00−9всв348997 0.2 1022250
03:00−9св3590100 0.5 1023256
06:00−9всв369185 0.3 1023274
09:00−9всв3692100 0.6 1024305
12:00−7в3587100 0.3 1025357
15:00−7в369299 0.4 1025330
18:00−6в3791100 0.1 1026306
21:00−6вюв4993100 0.1 1026326
7 декабря, вт
вт700:00−7вюв41093100 0.0 1026338
03:00−6вюв41291100 0.0 1026406
06:00−6вюв51491100 0.0 1024483
09:00−4вюв61584100 0.0 1023693
12:00−4вюв71693100 1.1 1020706
15:00−3вюв71594100 3.5 1018776
18:00−3юв61495100 3.3 1015653
21:00−2юв51294100 3.9 1014521
8 декабря, ср
ср800:000юв41298100 2.4 1012480
03:00+2ю41199100 6.8 1012423
06:00+2ююз31099100 0.9 1012384
09:00+2ю3899100 2.3 1013307
12:00+1ююз3799100 0.9 1014426
15:000юз14100100 3.0 1015250
18:00−2сз3597100 1.6 1017211
21:00−4сз2595100 2.7 1019215